User: anonymous   Login
Location: Unspecified
(0.0000°N, 0.0000°E)
Time: 03:43:44
(UTC+00:00)
Language:

Tansei-3 - Orbit

View from above orbital plane
View from above orbital plane
View from above satellite
View from above satellite

Ground track
Ground track

The orbit data is extracted from the following two-line orbital elements,

1  9841U 77012A   19053.80509697 -.00000014  00000-0  68619-4 0  9991
2  9841  65.7576 193.0896 1734226 297.0519  46.3900 10.73819393647063
Epoch (UTC): 22 February 2019 19:19:20
Eccentricity: 0.1734226
inclination: 65.7576°
perigee height: 795 km
apogee height: 3805 km
right ascension of ascending node: 193.0896°
argument of perigee: 297.0519°
revolutions per day: 10.73819393
mean anomaly at epoch: 46.3900°
orbit number at epoch: 64706

The dashed part of the orbit path shows where the satellite is in the earth's shadow,  

DLR